iso_date,epoch_date,Year,Hour,Min,DOY,POS_DOY,Lat,Lon,BP,Ts,Ta,has_bp,has_ts,has_ta,BuoyID,Buoy_Type,Buoy_Owner,Logistics,Hemisphere
2018-05-04T19:52:01Z,1525463522,2018,19,52,124.8278,124.8278,82.5758,-62.4708,999.6,-11.3,-13.1,yes,yes,yes,300234065621410,SnowBuoy,AWI,LIA_2018,North
2018-05-04T20:04:59Z,1525464300,2018,20,5,124.8368,124.8368,82.5758,-62.4708,999.5,-11.4,-12.8,yes,yes,yes,300234065621410,SnowBuoy,AWI,LIA_2018,North
2018-05-04T21:05:02Z,1525467902,2018,21,5,124.8785,124.8785,82.5758,-62.4708,998.2,-12.3,-14.3,yes,yes,yes,300234065621410,SnowBuoy,AWI,LIA_2018,North
2018-05-04T22:04:56Z,1525471497,2018,22,5,124.9201,124.9201,82.5758,-62.4708,997.3,-12.6,-14.1,yes,yes,yes,300234065621410,SnowBuoy,AWI,LIA_2018,North
2018-05-04T23:04:59Z,1525475100,2018,23,5,124.9618,124.9618,82.5758,-62.471,996.7,-12.5,-13.9,yes,yes,yes,300234065621410,SnowBuoy,AWI,LIA_2018,North
2018-05-05T00:05:02Z,1525478702,2018,0,5,125.0035,125.0035,82.5758,-62.4708,996.4,-12.3,-13.5,yes,yes,yes,300234065621410,SnowBuoy,AWI,LIA_2018,North
2018-05-05T01:04:56Z,1525482297,2018,1,5,125.0451,125.0451,82.5758,-62.4708,996.0,-12.0,-12.7,yes,yes,yes,300234065621410,SnowBuoy,AWI,LIA_2018,North
2018-05-05T02:04:59Z,1525485900,2018,2,5,125.0868,125.0868,82.5758,-62.4708,995.9,-11.6,-12.1,yes,yes,yes,300234065621410,SnowBuoy,AWI,LIA_2018,North
2018-05-05T03:05:02Z,1525489502,2018,3,5,125.1285,125.1285,82.5758,-62.4706,995.5,-11.6,-13.1,yes,yes,yes,300234065621410,SnowBuoy,AWI,LIA_2018,North
2018-05-05T04:04:56Z,1525493097,2018,4,5,125.1701,125.1701,82.5758,-62.4708,995.2,-11.7,-12.8,yes,yes,yes,300234065621410,SnowBuoy,AWI,LIA_2018,North
2018-05-05T05:04:59Z,1525496700,2018,5,5,125.2118,125.2118,82.5758,-62.4708,995.0,-12.0,-13.2,yes,yes,yes,300234065621410,SnowBuoy,AWI,LIA_2018,North
2018-05-05T06:05:02Z,1525500302,2018,6,5,125.2535,125.2535,82.5758,-62.4708,995.0,-11.9,-13.0,yes,yes,yes,300234065621410,SnowBuoy,AWI,LIA_2018,North
2018-05-05T07:04:56Z,1525503897,2018,7,5,125.2951,125.2951,82.5758,-62.471,995.6,-11.3,-10.1,yes,yes,yes,300234065621410,SnowBuoy,AWI,LIA_2018,North
2018-05-05T08:04:59Z,1525507500,2018,8,5,125.3368,125.3368,82.5758,-62.4708,995.8,-10.4,-9.4,yes,yes,yes,300234065621410,SnowBuoy,AWI,LIA_2018,North
2018-05-05T09:05:02Z,1525511102,2018,9,5,125.3785,125.3785,82.5758,-62.4708,995.7,-10.3,-9.2,yes,yes,yes,300234065621410,SnowBuoy,AWI,LIA_2018,North
2018-05-05T10:04:56Z,1525514697,2018,10,5,125.4201,125.4201,82.5758,-62.4708,995.8,-10.1,-9.0,yes,yes,yes,300234065621410,SnowBuoy,AWI,LIA_2018,North
2018-05-05T11:04:59Z,1525518300,2018,11,5,125.4618,125.4618,82.5758,-62.4708,996.3,-9.8,-8.9,yes,yes,yes,300234065621410,SnowBuoy,AWI,LIA_2018,North
2018-05-05T12:05:02Z,1525521902,2018,12,5,125.5035,125.5035,82.5758,-62.4708,996.5,-9.6,-9.2,yes,yes,yes,300234065621410,SnowBuoy,AWI,LIA_2018,North
2018-05-05T13:04:56Z,1525525497,2018,13,5,125.5451,125.5451,82.5758,-62.4708,996.4,-9.4,-9.4,yes,yes,yes,300234065621410,SnowBuoy,AWI,LIA_2018,North
2018-05-05T14:04:59Z,1525529100,2018,14,5,125.5868,125.5868,82.5758,-62.4708,996.4,-8.8,-9.1,yes,yes,yes,300234065621410,SnowBuoy,AWI,LIA_2018,North
2018-05-05T15:05:02Z,1525532702,2018,15,5,125.6285,125.6285,82.5758,-62.4722,996.6,-8.8,-9.6,yes,yes,yes,300234065621410,SnowBuoy,AWI,LIA_2018,North
2018-05-05T16:04:56Z,1525536297,2018,16,5,125.6701,125.6701,82.5758,-62.4722,997.2,-8.8,-10.4,yes,yes,yes,300234065621410,SnowBuoy,AWI,LIA_2018,North
2018-05-05T17:04:59Z,1525539900,2018,17,5,125.7118,125.7118,82.5758,-62.4722,997.7,-8.8,-11.2,yes,yes,yes,300234065621410,SnowBuoy,AWI,LIA_2018,North
2018-05-05T18:05:02Z,1525543502,2018,18,5,125.7535,125.7535,82.5758,-62.4724,998.4,-8.7,-11.0,yes,yes,yes,300234065621410,SnowBuoy,AWI,LIA_2018,North
2018-05-05T19:04:56Z,1525547097,2018,19,5,125.7951,125.7951,82.5758,-62.4722,999.6,-8.6,-11.4,yes,yes,yes,300234065621410,SnowBuoy,AWI,LIA_2018,North
2018-05-05T20:04:59Z,1525550700,2018,20,5,125.8368,125.8368,82.5758,-62.4722,1000.5,-8.5,-9.8,yes,yes,yes,300234065621410,SnowBuoy,AWI,LIA_2018,North
2018-05-05T21:05:02Z,1525554302,2018,21,5,125.8785,125.8785,82.5758,-62.4722,1000.9,-8.5,-9.7,yes,yes,yes,300234065621410,SnowBuoy,AWI,LIA_2018,North
2018-05-05T22:04:56Z,1525557897,2018,22,5,125.9201,125.9201,82.5758,-62.4722,1001.6,-8.4,-11.7,yes,yes,yes,300234065621410,SnowBuoy,AWI,LIA_2018,North
2018-05-05T23:04:59Z,1525561500,2018,23,5,125.9618,125.9618,82.5758,-62.4722,1002.1,-8.4,-11.3,yes,yes,yes,300234065621410,SnowBuoy,AWI,LIA_2018,North
2018-05-06T00:05:02Z,1525565102,2018,0,5,126.0035,126.0035,82.5758,-62.4722,1002.4,-8.4,-13.8,yes,yes,yes,300234065621410,SnowBuoy,AWI,LIA_2018,North
2018-05-06T01:04:56Z,1525568697,2018,1,5,126.0451,126.0451,82.5758,-62.4722,1003.3,-8.4,-13.3,yes,yes,yes,300234065621410,SnowBuoy,AWI,LIA_2018,North
2018-05-06T02:04:59Z,1525572300,2018,2,5,126.0868,126.0868,82.5758,-62.4722,1003.2,-8.4,-14.7,yes,yes,yes,300234065621410,SnowBuoy,AWI,LIA_2018,North
2018-05-06T03:05:02Z,1525575902,2018,3,5,126.1285,126.1285,82.5758,-62.4722,1003.6,-8.5,-15.1,yes,yes,yes,300234065621410,SnowBuoy,AWI,LIA_2018,North
2018-05-06T04:04:56Z,1525579497,2018,4,5,126.1701,126.1701,82.5758,-62.4722,1003.9,-8.5,-15.6,yes,yes,yes,300234065621410,SnowBuoy,AWI,LIA_2018,North
2018-05-06T05:04:59Z,1525583100,2018,5,5,126.2118,126.2118,82.5758,-62.4722,1004.2,-8.6,-15.1,yes,yes,yes,300234065621410,SnowBuoy,AWI,LIA_2018,North
2018-05-06T06:05:02Z,1525586702,2018,6,5,126.2535,126.2535,82.5758,-62.4722,1004.6,-8.6,-18.4,yes,yes,yes,300234065621410,SnowBuoy,AWI,LIA_2018,North
2018-05-06T07:04:56Z,1525590297,2018,7,5,126.2951,126.2951,82.5758,-62.4722,1005.0,-8.7,-16.1,yes,yes,yes,300234065621410,SnowBuoy,AWI,LIA_2018,North
2018-05-06T08:04:59Z,1525593900,2018,8,5,126.3368,126.3368,82.5758,-62.4722,1005.1,-8.7,-14.6,yes,yes,yes,300234065621410,SnowBuoy,AWI,LIA_2018,North
2018-05-06T09:05:02Z,1525597502,2018,9,5,126.3785,126.3785,82.5758,-62.4724,1005.3,-8.7,-13.9,yes,yes,yes,300234065621410,SnowBuoy,AWI,LIA_2018,North
2018-05-06T10:04:56Z,1525601097,2018,10,5,126.4201,126.4201,82.5758,-62.4724,1005.2,-8.6,-13.0,yes,yes,yes,300234065621410,SnowBuoy,AWI,LIA_2018,North
2018-05-06T11:04:59Z,1525604700,2018,11,5,126.4618,126.4618,82.5758,-62.4722,1005.2,-8.6,-12.9,yes,yes,yes,300234065621410,SnowBuoy,AWI,LIA_2018,North
2018-05-06T12:05:02Z,1525608302,2018,12,5,126.5035,126.5035,82.5758,-62.4722,1005.0,-8.5,-11.0,yes,yes,yes,300234065621410,SnowBuoy,AWI,LIA_2018,North
2018-05-06T13:04:56Z,1525611897,2018,13,5,126.5451,126.5451,82.5758,-62.4722,1005.1,-8.5,-12.1,yes,yes,yes,300234065621410,SnowBuoy,AWI,LIA_2018,North
2018-05-06T14:04:59Z,1525615500,2018,14,5,126.5868,126.5868,82.5758,-62.4722,1005.0,-8.4,-11.5,yes,yes,yes,300234065621410,SnowBuoy,AWI,LIA_2018,North
2018-05-06T15:05:02Z,1525619102,2018,15,5,126.6285,126.6285,82.5758,-62.4722,1004.8,-8.4,-11.3,yes,yes,yes,300234065621410,SnowBuoy,AWI,LIA_2018,North
2018-05-06T16:04:56Z,1525622697,2018,16,5,126.6701,126.6701,82.5758,-62.4722,1004.7,-8.3,-11.1,yes,yes,yes,300234065621410,SnowBuoy,AWI,LIA_2018,North
2018-05-06T17:04:59Z,1525626300,2018,17,5,126.7118,126.7118,82.5758,-62.4722,1004.3,-8.3,-11.1,yes,yes,yes,300234065621410,SnowBuoy,AWI,LIA_2018,North
2018-05-06T18:05:02Z,1525629902,2018,18,5,126.7535,126.7535,82.5758,-62.4722,1004.2,-8.2,-10.5,yes,yes,yes,300234065621410,SnowBuoy,AWI,LIA_2018,North
2018-05-06T19:04:56Z,1525633497,2018,19,5,126.7951,126.7951,82.5758,-62.4724,1004.0,-8.2,-9.9,yes,yes,yes,300234065621410,SnowBuoy,AWI,LIA_2018,North
2018-05-06T20:04:59Z,1525637100,2018,20,5,126.8368,126.8368,82.5758,-62.4722,1004.0,-8.1,-10.2,yes,yes,yes,300234065621410,SnowBuoy,AWI,LIA_2018,North
2018-05-06T21:05:02Z,1525640702,2018,21,5,126.8785,126.8785,82.5758,-62.472,1003.9,-8.1,-10.3,yes,yes,yes,300234065621410,SnowBuoy,AWI,LIA_2018,North
2018-05-06T22:04:56Z,1525644297,2018,22,5,126.9201,126.9201,82.5758,-62.4722,1004.3,-8.1,-10.9,yes,yes,yes,300234065621410,SnowBuoy,AWI,LIA_2018,North
2018-05-06T23:04:59Z,1525647900,2018,23,5,126.9618,126.9618,82.5758,-62.4722,1004.7,-8.0,-11.3,yes,yes,yes,300234065621410,SnowBuoy,AWI,LIA_2018,North
2018-05-07T00:05:02Z,1525651502,2018,0,5,127.0035,127.0035,82.5758,-62.4722,1004.8,-8.0,-11.4,yes,yes,yes,300234065621410,SnowBuoy,AWI,LIA_2018,North
2018-05-07T01:04:56Z,1525655097,2018,1,5,127.0451,127.0451,82.5758,-62.4722,1004.9,-8.0,-11.1,yes,yes,yes,300234065621410,SnowBuoy,AWI,LIA_2018,North
2018-05-07T02:04:59Z,1525658700,2018,2,5,127.0868,127.0868,82.5758,-62.4722,1005.0,-8.0,-11.3,yes,yes,yes,300234065621410,SnowBuoy,AWI,LIA_2018,North
2018-05-07T03:05:02Z,1525662302,2018,3,5,127.1285,127.1285,82.5758,-62.4724,1005.0,-8.0,-10.2,yes,yes,yes,300234065621410,SnowBuoy,AWI,LIA_2018,North
2018-05-07T04:04:56Z,1525665897,2018,4,5,127.1701,127.1701,82.5758,-62.4724,1005.0,-7.9,-11.0,yes,yes,yes,300234065621410,SnowBuoy,AWI,LIA_2018,North
2018-05-07T05:04:59Z,1525669500,2018,5,5,127.2118,127.2118,82.5758,-62.4722,1004.9,-7.9,-11.1,yes,yes,yes,300234065621410,SnowBuoy,AWI,LIA_2018,North
2018-05-07T06:05:02Z,1525673102,2018,6,5,127.2535,127.2535,82.5758,-62.4722,1005.1,-7.9,-10.1,yes,yes,yes,300234065621410,SnowBuoy,AWI,LIA_2018,North
2018-05-07T07:04:56Z,1525676697,2018,7,5,127.2951,127.2951,82.5758,-62.4722,1005.4,-7.9,-10.0,yes,yes,yes,300234065621410,SnowBuoy,AWI,LIA_2018,North
2018-05-07T08:04:59Z,1525680300,2018,8,5,127.3368,127.3368,82.5758,-62.4722,1005.6,-7.9,-10.3,yes,yes,yes,300234065621410,SnowBuoy,AWI,LIA_2018,North
2018-05-07T09:05:02Z,1525683902,2018,9,5,127.3785,127.3785,82.5758,-62.4722,1005.7,-7.8,-10.7,yes,yes,yes,300234065621410,SnowBuoy,AWI,LIA_2018,North
2018-05-07T10:04:56Z,1525687497,2018,10,5,127.4201,127.4201,82.5758,-62.4722,1006.0,-7.8,-13.4,yes,yes,yes,300234065621410,SnowBuoy,AWI,LIA_2018,North
2018-05-07T11:04:59Z,1525691100,2018,11,5,127.4618,127.4618,82.5758,-62.4722,1006.5,-7.8,-12.2,yes,yes,yes,300234065621410,SnowBuoy,AWI,LIA_2018,North
2018-05-07T12:05:02Z,1525694702,2018,12,5,127.5035,127.5035,82.5758,-62.4722,1006.7,-7.8,-11.2,yes,yes,yes,300234065621410,SnowBuoy,AWI,LIA_2018,North
2018-05-07T13:04:56Z,1525698297,2018,13,5,127.5451,127.5451,82.5758,-62.4722,1007.0,-7.8,-14.3,yes,yes,yes,300234065621410,SnowBuoy,AWI,LIA_2018,North
2018-05-07T14:04:59Z,1525701900,2018,14,5,127.5868,127.5868,82.5758,-62.4724,1007.1,-7.7,-14.7,yes,yes,yes,300234065621410,SnowBuoy,AWI,LIA_2018,North
2018-05-07T15:05:02Z,1525705502,2018,15,5,127.6285,127.6285,82.5758,-62.4722,1006.5,-7.7,-14.6,yes,yes,yes,300234065621410,SnowBuoy,AWI,LIA_2018,North
2018-05-07T16:04:56Z,1525709097,2018,16,5,127.6701,127.6701,82.5758,-62.4722,1007.8,-7.7,-13.2,yes,yes,yes,300234065621410,SnowBuoy,AWI,LIA_2018,North
2018-05-07T17:04:59Z,1525712700,2018,17,5,127.7118,127.7118,82.5758,-62.4722,1007.8,-7.6,-11.0,yes,yes,yes,300234065621410,SnowBuoy,AWI,LIA_2018,North
2018-05-07T18:05:02Z,1525716302,2018,18,5,127.7535,127.7535,82.5758,-62.4722,1007.6,-7.6,-12.6,yes,yes,yes,300234065621410,SnowBuoy,AWI,LIA_2018,North
2018-05-07T19:04:56Z,1525719897,2018,19,5,127.7951,127.7951,82.5758,-62.4722,1007.7,-7.5,-12.8,yes,yes,yes,300234065621410,SnowBuoy,AWI,LIA_2018,North
2018-05-07T20:04:59Z,1525723500,2018,20,5,127.8368,127.8368,82.5758,-62.4722,1008.2,-7.5,-13.3,yes,yes,yes,300234065621410,SnowBuoy,AWI,LIA_2018,North
2018-05-07T21:05:02Z,1525727102,2018,21,5,127.8785,127.8785,82.5758,-62.472,1008.3,-7.5,-10.1,yes,yes,yes,300234065621410,SnowBuoy,AWI,LIA_2018,North
2018-05-07T22:04:56Z,1525730697,2018,22,5,127.9201,127.9201,82.5758,-62.4724,1008.3,-7.5,-12.6,yes,yes,yes,300234065621410,SnowBuoy,AWI,LIA_2018,North
2018-05-07T23:04:59Z,1525734300,2018,23,5,127.9618,127.9618,82.5758,-62.4722,1007.9,-7.5,-14.5,yes,yes,yes,300234065621410,SnowBuoy,AWI,LIA_2018,North
2018-05-08T00:05:02Z,1525737902,2018,0,5,128.0035,128.0035,82.5758,-62.4722,1008.0,-7.5,-13.5,yes,yes,yes,300234065621410,SnowBuoy,AWI,LIA_2018,North
2018-05-08T01:04:56Z,1525741497,2018,1,5,128.0451,128.0451,82.5758,-62.4722,1007.7,-7.5,-14.0,yes,yes,yes,300234065621410,SnowBuoy,AWI,LIA_2018,North
2018-05-08T02:04:59Z,1525745100,2018,2,5,128.0868,128.0868,82.5758,-62.4722,1007.5,-7.6,-16.3,yes,yes,yes,300234065621410,SnowBuoy,AWI,LIA_2018,North
2018-05-08T03:05:02Z,1525748702,2018,3,5,128.1285,128.1285,82.5758,-62.4724,1006.7,-7.6,-16.5,yes,yes,yes,300234065621410,SnowBuoy,AWI,LIA_2018,North
2018-05-08T04:04:56Z,1525752297,2018,4,5,128.1701,128.1701,82.5758,-62.4724,1006.5,-7.6,-18.5,yes,yes,yes,300234065621410,SnowBuoy,AWI,LIA_2018,North
2018-05-08T05:04:59Z,1525755900,2018,5,5,128.2118,128.2118,82.5758,-62.4722,1006.1,-7.7,-17.3,yes,yes,yes,300234065621410,SnowBuoy,AWI,LIA_2018,North
2018-05-08T06:05:02Z,1525759502,2018,6,5,128.2535,128.2535,82.5758,-62.4722,1006.0,-7.7,-17.6,yes,yes,yes,300234065621410,SnowBuoy,AWI,LIA_2018,North
2018-05-08T07:04:56Z,1525763097,2018,7,5,128.2951,128.2951,82.5758,-62.4724,1005.7,-7.7,-16.1,yes,yes,yes,300234065621410,SnowBuoy,AWI,LIA_2018,North
2018-05-08T08:04:59Z,1525766700,2018,8,5,128.3368,128.3368,82.5758,-62.4722,1005.4,-7.7,-16.4,yes,yes,yes,300234065621410,SnowBuoy,AWI,LIA_2018,North
2018-05-08T09:05:02Z,1525770302,2018,9,5,128.3785,128.3785,82.5758,-62.4722,1004.8,-7.7,-15.1,yes,yes,yes,300234065621410,SnowBuoy,AWI,LIA_2018,North
2018-05-08T10:04:56Z,1525773897,2018,10,5,128.4201,128.4201,82.5758,-62.4724,1004.0,-7.7,-14.2,yes,yes,yes,300234065621410,SnowBuoy,AWI,LIA_2018,North
2018-05-08T11:04:59Z,1525777500,2018,11,5,128.4618,128.4618,82.5758,-62.4724,1004.0,-7.7,-12.0,yes,yes,yes,300234065621410,SnowBuoy,AWI,LIA_2018,North
2018-05-08T12:05:02Z,1525781102,2018,12,5,128.5035,128.5035,82.5758,-62.4722,1003.3,-7.7,-12.0,yes,yes,yes,300234065621410,SnowBuoy,AWI,LIA_2018,North
2018-05-08T13:04:56Z,1525784697,2018,13,5,128.5451,128.5451,82.5758,-62.4724,1002.9,-7.6,-11.4,yes,yes,yes,300234065621410,SnowBuoy,AWI,LIA_2018,North
2018-05-08T14:04:59Z,1525788300,2018,14,5,128.5868,128.5868,82.5758,-62.4722,1002.2,-7.6,-11.3,yes,yes,yes,300234065621410,SnowBuoy,AWI,LIA_2018,North
2018-05-08T15:05:02Z,1525791902,2018,15,5,128.6285,128.6285,82.5758,-62.4722,1001.9,-7.5,-11.3,yes,yes,yes,300234065621410,SnowBuoy,AWI,LIA_2018,North
2018-05-08T16:04:56Z,1525795497,2018,16,5,128.6701,128.6701,82.5758,-62.4722,1001.8,-7.5,-11.0,yes,yes,yes,300234065621410,SnowBuoy,AWI,LIA_2018,North
2018-05-08T17:04:59Z,1525799100,2018,17,5,128.7118,128.7118,82.5758,-62.4722,1001.5,-7.5,-11.2,yes,yes,yes,300234065621410,SnowBuoy,AWI,LIA_2018,North
2018-05-08T18:05:02Z,1525802702,2018,18,5,128.7535,128.7535,82.5758,-62.472,1001.5,-7.4,-11.2,yes,yes,yes,300234065621410,SnowBuoy,AWI,LIA_2018,North
2018-05-08T19:04:56Z,1525806297,2018,19,5,128.7951,128.7951,82.5758,-62.4722,1001.8,-7.4,-11.3,yes,yes,yes,300234065621410,SnowBuoy,AWI,LIA_2018,North
2018-05-08T20:04:59Z,1525809900,2018,20,5,128.8368,128.8368,82.5758,-62.4722,1001.9,-7.4,-11.3,yes,yes,yes,300234065621410,SnowBuoy,AWI,LIA_2018,North
2018-05-08T21:05:02Z,1525813502,2018,21,5,128.8785,128.8785,82.5758,-62.4722,1002.1,-7.4,-11.2,yes,yes,yes,300234065621410,SnowBuoy,AWI,LIA_2018,North
2018-05-08T22:04:56Z,1525817097,2018,22,5,128.9201,128.9201,82.5758,-62.4724,1002.5,-7.4,-11.4,yes,yes,yes,300234065621410,SnowBuoy,AWI,LIA_2018,North
2018-05-08T23:04:59Z,1525820700,2018,23,5,128.9618,128.9618,82.5758,-62.4722,1002.9,-7.4,-11.5,yes,yes,yes,300234065621410,SnowBuoy,AWI,LIA_2018,North
2018-05-09T00:05:02Z,1525824302,2018,0,5,129.0035,129.0035,82.5758,-62.4722,1003.3,-7.4,-11.5,yes,yes,yes,300234065621410,SnowBuoy,AWI,LIA_2018,North
2018-05-09T01:04:56Z,1525827897,2018,1,5,129.0451,129.0451,82.5758,-62.4722,1003.7,-7.4,-11.5,yes,yes,yes,300234065621410,SnowBuoy,AWI,LIA_2018,North
2018-05-09T02:04:59Z,1525831500,2018,2,5,129.0868,129.0868,82.5758,-62.4724,1004.2,-7.4,-12.1,yes,yes,yes,300234065621410,SnowBuoy,AWI,LIA_2018,North
2018-05-09T03:05:02Z,1525835102,2018,3,5,129.1285,129.1285,82.5758,-62.4722,1004.6,-7.4,-12.2,yes,yes,yes,300234065621410,SnowBuoy,AWI,LIA_2018,North
2018-05-09T04:04:56Z,1525838697,2018,4,5,129.1701,129.1701,82.5758,-62.4726,1005.1,-7.4,-12.4,yes,yes,yes,300234065621410,SnowBuoy,AWI,LIA_2018,North
2018-05-09T05:04:59Z,1525842300,2018,5,5,129.2118,129.2118,82.5758,-62.4722,1006.0,-7.4,-12.7,yes,yes,yes,300234065621410,SnowBuoy,AWI,LIA_2018,North
2018-05-09T06:05:02Z,1525845902,2018,6,5,129.2535,129.2535,82.5758,-62.4724,1006.6,-7.5,-13.0,yes,yes,yes,300234065621410,SnowBuoy,AWI,LIA_2018,North
2018-05-09T07:04:56Z,1525849497,2018,7,5,129.2951,129.2951,82.5758,-62.4722,1007.3,-7.5,-12.9,yes,yes,yes,300234065621410,SnowBuoy,AWI,LIA_2018,North
2018-05-09T08:04:59Z,1525853100,2018,8,5,129.3368,129.3368,82.5758,-62.4722,1008.0,-7.5,-12.9,yes,yes,yes,300234065621410,SnowBuoy,AWI,LIA_2018,North
2018-05-09T09:05:02Z,1525856702,2018,9,5,129.3785,129.3785,82.5758,-62.4724,1008.6,-7.5,-12.2,yes,yes,yes,300234065621410,SnowBuoy,AWI,LIA_2018,North
2018-05-09T10:04:56Z,1525860297,2018,10,5,129.4201,129.4201,82.5758,-62.472,1009.0,-7.4,-11.8,yes,yes,yes,300234065621410,SnowBuoy,AWI,LIA_2018,North
2018-05-09T11:04:59Z,1525863900,2018,11,5,129.4618,129.4618,82.5758,-62.4722,1009.4,-7.4,-12.3,yes,yes,yes,300234065621410,SnowBuoy,AWI,LIA_2018,North
2018-05-09T12:05:02Z,1525867502,2018,12,5,129.5035,129.5035,82.5758,-62.4722,1010.1,-7.4,-11.7,yes,yes,yes,300234065621410,SnowBuoy,AWI,LIA_2018,North
2018-05-09T13:04:56Z,1525871097,2018,13,5,129.5451,129.5451,82.5758,-62.4722,1010.5,-7.4,-10.9,yes,yes,yes,300234065621410,SnowBuoy,AWI,LIA_2018,North
2018-05-09T14:04:59Z,1525874700,2018,14,5,129.5868,129.5868,82.5758,-62.4724,1010.4,-7.4,-10.9,yes,yes,yes,300234065621410,SnowBuoy,AWI,LIA_2018,North
2018-05-09T15:05:02Z,1525878302,2018,15,5,129.6285,129.6285,82.5758,-62.4722,1011.0,-7.3,-11.3,yes,yes,yes,300234065621410,SnowBuoy,AWI,LIA_2018,North
2018-05-09T16:04:56Z,1525881897,2018,16,5,129.6701,129.6701,82.5758,-62.4722,1010.9,-7.3,-10.3,yes,yes,yes,300234065621410,SnowBuoy,AWI,LIA_2018,North
2018-05-09T17:04:59Z,1525885500,2018,17,5,129.7118,129.7118,82.5758,-62.4722,1011.0,-7.3,-9.7,yes,yes,yes,300234065621410,SnowBuoy,AWI,LIA_2018,North
2018-05-09T18:05:02Z,1525889102,2018,18,5,129.7535,129.7535,82.5758,-62.4722,1011.4,-7.2,-9.5,yes,yes,yes,300234065621410,SnowBuoy,AWI,LIA_2018,North
2018-05-09T19:04:56Z,1525892697,2018,19,5,129.7951,129.7951,82.5758,-62.4722,1011.3,-7.2,-8.8,yes,yes,yes,300234065621410,SnowBuoy,AWI,LIA_2018,North
2018-05-09T20:04:59Z,1525896300,2018,20,5,129.8368,129.8368,82.5758,-62.4722,1011.7,-7.1,-4.0,yes,yes,yes,300234065621410,SnowBuoy,AWI,LIA_2018,North
2018-05-09T21:05:02Z,1525899902,2018,21,5,129.8785,129.8785,82.5758,-62.4722,1011.7,-7.1,-10.3,yes,yes,yes,300234065621410,SnowBuoy,AWI,LIA_2018,North
2018-05-09T22:04:56Z,1525903497,2018,22,5,129.9201,129.9201,82.5758,-62.4722,1011.1,-7.1,-10.5,yes,yes,yes,300234065621410,SnowBuoy,AWI,LIA_2018,North
2018-05-09T23:04:59Z,1525907100,2018,23,5,129.9618,129.9618,82.5758,-62.4722,1011.6,-7.1,-13.0,yes,yes,yes,300234065621410,SnowBuoy,AWI,LIA_2018,North
2018-05-10T00:05:02Z,1525910702,2018,0,5,130.0035,130.0035,82.5758,-62.4722,1011.8,-7.1,-12.6,yes,yes,yes,300234065621410,SnowBuoy,AWI,LIA_2018,North
2018-05-10T01:04:56Z,1525914297,2018,1,5,130.0451,130.0451,82.5758,-62.4724,1011.5,-7.1,-13.0,yes,yes,yes,300234065621410,SnowBuoy,AWI,LIA_2018,North
2018-05-10T02:04:59Z,1525917900,2018,2,5,130.0868,130.0868,82.5758,-62.4722,1011.8,-7.1,-14.7,yes,yes,yes,300234065621410,SnowBuoy,AWI,LIA_2018,North
2018-05-10T03:05:02Z,1525921502,2018,3,5,130.1285,130.1285,82.5758,-62.4722,1011.7,-7.1,-14.8,yes,yes,yes,300234065621410,SnowBuoy,AWI,LIA_2018,North
2018-05-10T04:04:56Z,1525925097,2018,4,5,130.1701,130.1701,82.5758,-62.4722,1011.5,-7.1,-14.1,yes,yes,yes,300234065621410,SnowBuoy,AWI,LIA_2018,North
2018-05-10T05:04:59Z,1525928700,2018,5,5,130.2118,130.2118,82.5758,-62.4722,1011.4,-7.1,-13.0,yes,yes,yes,300234065621410,SnowBuoy,AWI,LIA_2018,North
2018-05-10T06:05:02Z,1525932302,2018,6,5,130.2535,130.2535,82.5758,-62.4726,1011.1,-7.2,-12.9,yes,yes,yes,300234065621410,SnowBuoy,AWI,LIA_2018,North
2018-05-10T07:04:56Z,1525935897,2018,7,5,130.2951,130.2951,82.5758,-62.4722,1011.1,-7.1,-12.1,yes,yes,yes,300234065621410,SnowBuoy,AWI,LIA_2018,North
2018-05-10T08:04:59Z,1525939500,2018,8,5,130.3368,130.3368,82.5758,-62.4724,1011.2,-7.1,-12.1,yes,yes,yes,300234065621410,SnowBuoy,AWI,LIA_2018,North
2018-05-10T09:05:02Z,1525943102,2018,9,5,130.3785,130.3785,82.5758,-62.473,1011.2,-7.1,-11.1,yes,yes,yes,300234065621410,SnowBuoy,AWI,LIA_2018,North
2018-05-10T10:04:56Z,1525946697,2018,10,5,130.4201,130.4201,82.5758,-62.4722,1010.6,-7.1,-12.7,yes,yes,yes,300234065621410,SnowBuoy,AWI,LIA_2018,North
2018-05-10T11:04:59Z,1525950300,2018,11,5,130.4618,130.4618,82.5758,-62.4722,1011.1,-7.1,-12.3,yes,yes,yes,300234065621410,SnowBuoy,AWI,LIA_2018,North
2018-05-10T12:05:02Z,1525953902,2018,12,5,130.5035,130.5035,82.5758,-62.4722,1010.6,-7.1,-11.6,yes,yes,yes,300234065621410,SnowBuoy,AWI,LIA_2018,North
2018-05-10T13:04:56Z,1525957497,2018,13,5,130.5451,130.5451,82.5758,-62.4724,1010.9,-7.1,-11.5,yes,yes,yes,300234065621410,SnowBuoy,AWI,LIA_2018,North
2018-05-10T14:04:59Z,1525961100,2018,14,5,130.5868,130.5868,82.5758,-62.4722,1011.1,-7.0,-10.3,yes,yes,yes,300234065621410,SnowBuoy,AWI,LIA_2018,North
2018-05-10T15:05:02Z,1525964702,2018,15,5,130.6285,130.6285,82.5758,-62.4722,1010.9,-7.0,-9.8,yes,yes,yes,300234065621410,SnowBuoy,AWI,LIA_2018,North
2018-05-10T16:04:56Z,1525968297,2018,16,5,130.6701,130.6701,82.5758,-62.4724,1010.5,-7.0,-10.6,yes,yes,yes,300234065621410,SnowBuoy,AWI,LIA_2018,North
2018-05-10T17:04:59Z,1525971900,2018,17,5,130.7118,130.7118,82.5758,-62.4722,1010.8,-6.9,-9.9,yes,yes,yes,300234065621410,SnowBuoy,AWI,LIA_2018,North
2018-05-10T18:05:02Z,1525975502,2018,18,5,130.7535,130.7535,82.5758,-62.4722,1010.8,-6.9,-10.0,yes,yes,yes,300234065621410,SnowBuoy,AWI,LIA_2018,North
2018-05-10T19:04:56Z,1525979097,2018,19,5,130.7951,130.7951,82.5758,-62.472,1010.8,-6.9,-9.7,yes,yes,yes,300234065621410,SnowBuoy,AWI,LIA_2018,North
2018-05-10T20:04:59Z,1525982700,2018,20,5,130.8368,130.8368,82.5758,-62.4722,1010.7,-6.9,-11.3,yes,yes,yes,300234065621410,SnowBuoy,AWI,LIA_2018,North
2018-05-10T21:05:02Z,1525986302,2018,21,5,130.8785,130.8785,82.5758,-62.4722,1011.1,-6.8,-12.2,yes,yes,yes,300234065621410,SnowBuoy,AWI,LIA_2018,North
2018-05-10T22:04:56Z,1525989897,2018,22,5,130.9201,130.9201,82.5758,-62.4722,1011.0,-6.8,-10.6,yes,yes,yes,300234065621410,SnowBuoy,AWI,LIA_2018,North
2018-05-10T23:04:59Z,1525993500,2018,23,5,130.9618,130.9618,82.5758,-62.4724,1011.0,-6.8,-13.0,yes,yes,yes,300234065621410,SnowBuoy,AWI,LIA_2018,North
2018-05-11T00:05:02Z,1525997102,2018,0,5,131.0035,131.0035,82.5758,-62.4722,1011.2,-6.8,-12.4,yes,yes,yes,300234065621410,SnowBuoy,AWI,LIA_2018,North
2018-05-11T01:04:56Z,1526000697,2018,1,5,131.0451,131.0451,82.5758,-62.4722,1011.1,-6.8,-13.6,yes,yes,yes,300234065621410,SnowBuoy,AWI,LIA_2018,North
2018-05-11T02:04:59Z,1526004300,2018,2,5,131.0868,131.0868,82.5758,-62.4722,1011.3,-6.8,-13.2,yes,yes,yes,300234065621410,SnowBuoy,AWI,LIA_2018,North
2018-05-11T03:05:02Z,1526007902,2018,3,5,131.1285,131.1285,82.5758,-62.4722,1011.6,-6.8,-14.0,yes,yes,yes,300234065621410,SnowBuoy,AWI,LIA_2018,North
2018-05-11T04:04:56Z,1526011497,2018,4,5,131.1701,131.1701,82.5758,-62.4724,1011.7,-6.9,-15.1,yes,yes,yes,300234065621410,SnowBuoy,AWI,LIA_2018,North
2018-05-11T05:04:59Z,1526015100,2018,5,5,131.2118,131.2118,82.5758,-62.4724,1011.2,-6.9,-15.8,yes,yes,yes,300234065621410,SnowBuoy,AWI,LIA_2018,North
2018-05-11T06:05:02Z,1526018702,2018,6,5,131.2535,131.2535,82.5758,-62.4724,1011.2,-6.9,-15.2,yes,yes,yes,300234065621410,SnowBuoy,AWI,LIA_2018,North
2018-05-11T07:04:56Z,1526022297,2018,7,5,131.2951,131.2951,82.5758,-62.4722,1011.6,-6.9,-15.9,yes,yes,yes,300234065621410,SnowBuoy,AWI,LIA_2018,North
2018-05-11T08:04:59Z,1526025900,2018,8,5,131.3368,131.3368,82.5758,-62.4724,1011.9,-7.0,-15.0,yes,yes,yes,300234065621410,SnowBuoy,AWI,LIA_2018,North